| time (UTC) | temp C | wind direction | speed KPH | gust KPH | rain 1hr cm | rain 24hr cm | rain mn cm | humidity % | barometer mb |
| 20260509031918 | 15 | 0 | 0.0 | 0.0 | 0.00 | 0.00 | 0.00 | 79 | 1015.9 |
| 20260509030509 | 15 | 0 | 0.0 | 0.0 | 0.00 | 0.00 | 0.00 | 79 | 1015.8 |
| 20260509030357 | 15 | 0 | 0.0 | 0.0 | 0.00 | 0.00 | 0.00 | 79 | 1015.8 |
| 20260509024924 | 15 | 0 | 0.0 | 0.0 | 0.00 | 0.00 | 0.00 | 78 | 1015.7 |
| 20260509023355 | 15 | 0 | 0.0 | 0.0 | 0.00 | 0.00 | 0.00 | 78 | 1015.6 |
| 20260509021909 | 15 | 0 | 0.0 | 0.0 | 0.00 | 0.00 | 0.00 | 78 | 1015.6 |
| 20260509020457 | 15 | 0 | 0.0 | 0.0 | 0.00 | 0.00 | 0.00 | 78 | 1015.5 |
| 20260509014908 | 16 | 0 | 0.0 | 0.0 | 0.00 | 0.00 | 0.00 | 77 | 1015.4 |
| 20260509013517 | 16 | 0 | 0.0 | 0.0 | 0.00 | 0.00 | 0.00 | 76 | 1015.2 |
| 20260509013324 | 16 | 0 | 0.0 | 0.0 | 0.00 | 0.00 | 0.00 | 76 | 1015.2 |
| 20260509012022 | 16 | 0 | 0.0 | 0.0 | 0.00 | 0.00 | 0.00 | 75 | 1015.1 |
| 20260509011919 | 16 | 0 | 0.0 | 0.0 | 0.00 | 0.00 | 0.00 | 75 | 1015.1 |
| 20260509010411 | 16 | 0 | 0.0 | 0.0 | 0.00 | 0.00 | 0.00 | 74 | 1015.2 |
| 20260509004938 | 17 | 0 | 0.0 | 0.0 | 0.00 | 0.00 | 0.00 | 72 | 1015.0 |
| 20260509004822 | 17 | 0 | 0.0 | 0.0 | 0.00 | 0.00 | 0.00 | 72 | 1015.0 |
| 20260509003354 | 17 | 0 | 0.0 | 0.0 | 0.00 | 0.00 | 0.00 | 72 | 1014.8 |
| 20260509001910 | 17 | 0 | 0.0 | 0.0 | 0.00 | 0.00 | 0.00 | 71 | 1015.0 |
| 20260509000511 | 18 | 0 | 0.0 | 0.0 | 0.00 | 0.00 | 0.00 | 70 | 1015.0 |
| 20260509000351 | 18 | 0 | 0.0 | 0.0 | 0.00 | 0.00 | 0.00 | 70 | 1015.0 |
| 20260508234922 | 18 | 0 | 0.0 | 0.0 | 0.00 | 0.00 | 0.00 | 69 | 1014.9 |
| 20260508233422 | 18 | 0 | 0.0 | 0.0 | 0.00 | 0.00 | 0.00 | 69 | 1015.0 |
| 20260508231915 | 18 | 0 | 0.0 | 0.0 | 0.00 | 0.00 | 0.00 | 68 | 1014.7 |
| 20260508230431 | 19 | 0 | 0.0 | 0.0 | 0.00 | 0.00 | 0.00 | 68 | 1014.9 |
| 20260508224854 | 19 | 0 | 0.0 | 0.0 | 0.00 | 0.00 | 0.00 | 66 | 1014.8 |
| 20260508223524 | 20 | 0 | 0.0 | 0.0 | 0.00 | 0.00 | 0.00 | 64 | 1014.8 |
| 20260508223334 | 20 | 0 | 0.0 | 0.0 | 0.00 | 0.00 | 0.00 | 64 | 1014.8 |
| 20260508221949 | 20 | 0 | 0.0 | 1.6 | 0.00 | 0.00 | 0.00 | 62 | 1014.7 |
| 20260508220521 | 20 | 0 | 0.0 | 0.0 | 0.00 | 0.00 | 0.00 | 62 | 1014.7 |
| 20260508220329 | 20 | 0 | 0.0 | 0.0 | 0.00 | 0.00 | 0.00 | 62 | 1014.7 |
| 20260508214950 | 20 | 0 | 0.0 | 1.6 | 0.00 | 0.00 | 0.00 | 59 | 1014.7 |
| 20260508214841 | 20 | 0 | 0.0 | 1.6 | 0.00 | 0.00 | 0.00 | 59 | 1014.7 |
| 20260508213428 | 20 | 0 | 0.0 | 1.6 | 0.00 | 0.00 | 0.00 | 58 | 1014.7 |
| 20260508211910 | 20 | 0 | 0.0 | 8.0 | 0.00 | 0.00 | 0.00 | 57 | 1014.9 |
| 20260508210355 | 20 | 0 | 0.0 | 4.8 | 0.00 | 0.00 | 0.00 | 57 | 1015.0 |
| 20260508204937 | 21 | 0 | 3.2 | 11.3 | 0.00 | 0.00 | 0.00 | 54 | 1014.7 |
| 20260508203441 | 20 | 0 | 1.6 | 8.0 | 0.00 | 0.00 | 0.00 | 53 | 1015.1 |
| 20260508203328 | 20 | 0 | 1.6 | 8.0 | 0.00 | 0.00 | 0.00 | 53 | 1015.1 |
| 20260508201921 | 21 | 0 | 3.2 | 9.7 | 0.00 | 0.00 | 0.00 | 54 | 1015.2 |
| 20260508200357 | 21 | 161 | 3.2 | 11.3 | 0.00 | 0.00 | 0.00 | 51 | 1015.3 |
| 20260508194955 | 21 | 0 | 3.2 | 11.3 | 0.00 | 0.00 | 0.00 | 51 | 1015.5 |
| 20260508194852 | 21 | 0 | 3.2 | 11.3 | 0.00 | 0.00 | 0.00 | 51 | 1015.5 |
| 20260508193424 | 21 | 0 | 3.2 | 9.7 | 0.00 | 0.00 | 0.00 | 50 | 1015.9 |
| 20260508191942 | 21 | 232 | 3.2 | 12.9 | 0.00 | 0.00 | 0.00 | 49 | 1016.3 |
| 20260508190407 | 20 | 0 | 3.2 | 9.7 | 0.00 | 0.00 | 0.00 | 48 | 1016.3 |
| 20260508185029 | 20 | 207 | 4.8 | 12.9 | 0.00 | 0.00 | 0.00 | 47 | 1016.4 |
| 20260508184915 | 20 | 207 | 4.8 | 12.9 | 0.00 | 0.00 | 0.00 | 47 | 1016.4 |
| 20260508183501 | 21 | 0 | 1.6 | 12.9 | 0.00 | 0.00 | 0.00 | 48 | 1016.6 |
| 20260508183351 | 21 | 0 | 1.6 | 12.9 | 0.00 | 0.00 | 0.00 | 48 | 1016.6 |
| 20260508181948 | 21 | 263 | 1.6 | 11.3 | 0.00 | 0.00 | 0.00 | 48 | 1016.8 |
| 20260508181837 | 21 | 263 | 1.6 | 11.3 | 0.00 | 0.00 | 0.00 | 48 | 1016.8 |
| 20260508180515 | 20 | 181 | 4.8 | 14.5 | 0.00 | 0.00 | 0.00 | 49 | 1017.0 |
| 20260508174921 | 20 | 156 | 6.4 | 16.1 | 0.00 | 0.00 | 0.00 | 49 | 1017.2 |
| 20260508173343 | 20 | 204 | 1.6 | 11.3 | 0.00 | 0.00 | 0.00 | 50 | 1017.4 |
| 20260508172018 | 20 | 199 | 6.4 | 14.5 | 0.00 | 0.00 | 0.00 | 48 | 1017.7 |
| 20260508170419 | 19 | 140 | 1.6 | 14.5 | 0.00 | 0.00 | 0.00 | 53 | 1017.8 |
| 20260508164949 | 20 | 121 | 6.4 | 16.1 | 0.00 | 0.00 | 0.00 | 50 | 1018.1 |
| 20260508163422 | 19 | 141 | 1.6 | 17.7 | 0.00 | 0.00 | 0.00 | 56 | 1018.2 |
| 20260508161930 | 19 | 166 | 6.4 | 16.1 | 0.00 | 0.00 | 0.00 | 52 | 1018.4 |
| 20260508160516 | 18 | 0 | 1.6 | 12.9 | 0.00 | 0.00 | 0.00 | 53 | 1018.6 |
| 20260508160351 | 18 | 0 | 1.6 | 12.9 | 0.00 | 0.00 | 0.00 | 53 | 1018.6 |
| 20260508155023 | 18 | 0 | 0.0 | 14.5 | 0.00 | 0.00 | 0.00 | 54 | 1018.6 |
| 20260508154851 | 18 | 0 | 0.0 | 14.5 | 0.00 | 0.00 | 0.00 | 54 | 1018.6 |
| 20260508153351 | 18 | 0 | 0.0 | 8.0 | 0.00 | 0.00 | 0.00 | 55 | 1019.0 |
| 20260508152027 | 18 | 0 | 3.2 | 8.0 | 0.00 | 0.00 | 0.00 | 55 | 1019.1 |
| 20260508150518 | 18 | 126 | 1.6 | 12.9 | 0.00 | 0.00 | 0.00 | 57 | 1019.1 |
| 20260508150411 | 18 | 126 | 1.6 | 12.9 | 0.00 | 0.00 | 0.00 | 57 | 1019.1 |
| 20260508145015 | 17 | 118 | 4.8 | 14.5 | 0.00 | 0.00 | 0.00 | 58 | 1019.0 |
| 20260508143402 | 17 | 0 | 0.0 | 9.7 | 0.00 | 0.00 | 0.00 | 59 | 1018.9 |
| 20260508141831 | 16 | 136 | 0.0 | 11.3 | 0.00 | 0.00 | 0.00 | 61 | 1018.9 |
| 20260508140454 | 16 | 0 | 0.0 | 1.6 | 0.00 | 0.00 | 0.00 | 63 | 1019.3 |
| 20260508140338 | 16 | 0 | 0.0 | 1.6 | 0.00 | 0.00 | 0.00 | 63 | 1019.3 |
| 20260508135035 | 15 | 0 | 0.0 | 0.0 | 0.00 | 0.05 | 0.00 | 68 | 1019.4 |
| 20260508134842 | 15 | 0 | 0.0 | 0.0 | 0.00 | 0.05 | 0.00 | 68 | 1019.4 |
| 20260508133426 | 14 | 0 | 0.0 | 0.0 | 0.00 | 0.05 | 0.00 | 72 | 1019.4 |
| 20260508131903 | 13 | 0 | 0.0 | 0.0 | 0.00 | 0.05 | 0.00 | 71 | 1019.4 |
| 20260508130425 | 13 | 0 | 0.0 | 0.0 | 0.00 | 0.05 | 0.00 | 73 | 1019.4 |
| 20260508125011 | 12 | 0 | 0.0 | 0.0 | 0.00 | 0.28 | 0.00 | 75 | 1019.1 |
| 20260508124828 | 12 | 0 | 0.0 | 0.0 | 0.00 | 0.28 | 0.00 | 75 | 1019.1 |
| 20260508123521 | 11 | 0 | 0.0 | 0.0 | 0.00 | 0.28 | 0.00 | 79 | 1018.8 |
| 20260508123419 | 11 | 0 | 0.0 | 0.0 | 0.00 | 0.28 | 0.00 | 79 | 1018.8 |
| 20260508122031 | 11 | 0 | 0.0 | 0.0 | 0.00 | 0.28 | 0.00 | 80 | 1018.5 |
| 20260508121920 | 11 | 0 | 0.0 | 0.0 | 0.00 | 0.28 | 0.00 | 80 | 1018.5 |
| 20260508120443 | 11 | 0 | 0.0 | 0.0 | 0.00 | 0.28 | 0.00 | 82 | 1018.3 |
| 20260508114954 | 10 | 0 | 0.0 | 0.0 | 0.00 | 0.43 | 0.00 | 85 | 1018.1 |
| 20260508114844 | 10 | 0 | 0.0 | 0.0 | 0.00 | 0.43 | 0.00 | 85 | 1018.1 |
| 20260508113351 | 9 | 0 | 0.0 | 0.0 | 0.00 | 0.43 | 0.00 | 86 | 1018.0 |
| 20260508111919 | 9 | 0 | 0.0 | 0.0 | 0.00 | 0.43 | 0.00 | 87 | 1017.7 |
| 20260508110459 | 8 | 0 | 0.0 | 0.0 | 0.00 | 0.43 | 0.00 | 87 | 1017.1 |
| 20260508104832 | 8 | 0 | 0.0 | 0.0 | 0.00 | 0.97 | 0.00 | 86 | 1017.0 |
| 20260508103426 | 8 | 0 | 0.0 | 0.0 | 0.00 | 0.97 | 0.00 | 86 | 1016.7 |
| 20260508101922 | 8 | 0 | 0.0 | 0.0 | 0.00 | 0.97 | 0.00 | 85 | 1016.6 |
| 20260508100430 | 9 | 0 | 0.0 | 0.0 | 0.00 | 0.97 | 0.00 | 85 | 1016.4 |
| 20260508095023 | 9 | 0 | 0.0 | 0.0 | 0.00 | 1.14 | 0.00 | 85 | 1016.2 |
| 20260508094911 | 9 | 0 | 0.0 | 0.0 | 0.00 | 1.14 | 0.00 | 85 | 1016.2 |
| 20260508093535 | 9 | 0 | 0.0 | 0.0 | 0.00 | 1.14 | 0.00 | 85 | 1016.1 |
| 20260508093410 | 9 | 0 | 0.0 | 0.0 | 0.00 | 1.14 | 0.00 | 85 | 1016.1 |
| 20260508092012 | 9 | 0 | 0.0 | 0.0 | 0.00 | 1.14 | 0.00 | 85 | 1015.9 |
| 20260508091848 | 9 | 0 | 0.0 | 0.0 | 0.00 | 1.14 | 0.00 | 85 | 1015.9 |
| 20260508090414 | 10 | 0 | 0.0 | 0.0 | 0.00 | 1.14 | 0.00 | 85 | 1015.8 |
| 20260508085012 | 10 | 0 | 0.0 | 1.6 | 0.00 | 1.27 | 0.00 | 84 | 1015.6 |
| 20260508084848 | 10 | 0 | 0.0 | 1.6 | 0.00 | 1.27 | 0.00 | 84 | 1015.6 |
| 20260508083351 | 10 | 0 | 0.0 | 0.0 | 0.00 | 1.27 | 0.00 | 83 | 1015.5 |
| 20260508081857 | 10 | 0 | 0.0 | 0.0 | 0.00 | 1.27 | 0.00 | 83 | 1015.5 |
| 20260508080401 | 10 | 0 | 0.0 | 0.0 | 0.00 | 1.27 | 0.00 | 84 | 1015.4 |
| 20260508074902 | 10 | 0 | 0.0 | 0.0 | 0.00 | 1.80 | 0.00 | 84 | 1015.5 |
| 20260508073439 | 10 | 0 | 0.0 | 0.0 | 0.00 | 1.80 | 0.00 | 84 | 1015.5 |
| 20260508071926 | 10 | 0 | 0.0 | 0.0 | 0.00 | 1.80 | 0.00 | 84 | 1015.6 |
| 20260508070513 | 10 | 0 | 0.0 | 0.0 | 0.00 | 1.80 | 0.00 | 84 | 1015.5 |
| 20260508070355 | 10 | 0 | 0.0 | 0.0 | 0.00 | 1.80 | 0.00 | 84 | 1015.5 |
| 20260508065015 | 10 | 0 | 0.0 | 0.0 | 0.00 | 1.98 | 0.00 | 85 | 1015.5 |
| 20260508063458 | 10 | 0 | 0.0 | 0.0 | 0.00 | 1.98 | 0.00 | 84 | 1015.4 |
| 20260508063333 | 10 | 0 | 0.0 | 0.0 | 0.00 | 1.98 | 0.00 | 84 | 1015.4 |
| 20260508061925 | 10 | 0 | 0.0 | 0.0 | 0.00 | 1.98 | 0.00 | 84 | 1015.4 |
| 20260508060430 | 11 | 0 | 0.0 | 0.0 | 0.00 | 1.98 | 0.00 | 83 | 1015.5 |
| 20260508055017 | 11 | 0 | 0.0 | 0.0 | 0.00 | 2.51 | 0.00 | 82 | 1015.5 |
| 20260508054908 | 11 | 0 | 0.0 | 0.0 | 0.00 | 2.51 | 0.00 | 82 | 1015.5 |
| 20260508053526 | 11 | 0 | 0.0 | 0.0 | 0.00 | 2.51 | 0.00 | 82 | 1015.6 |
| 20260508053344 | 11 | 0 | 0.0 | 0.0 | 0.00 | 2.51 | 0.00 | 82 | 1015.6 |
| 20260508052017 | 11 | 0 | 0.0 | 0.0 | 0.00 | 2.51 | 0.00 | 82 | 1015.5 |
| 20260508051905 | 11 | 0 | 0.0 | 0.0 | 0.00 | 2.51 | 0.00 | 82 | 1015.5 |
| 20260508050458 | 11 | 0 | 0.0 | 0.0 | 0.00 | 2.51 | 0.00 | 82 | 1015.5 |
| 20260508050327 | 11 | 0 | 0.0 | 0.0 | 0.00 | 2.51 | 0.00 | 82 | 1015.5 |
| 20260508045008 | 12 | 0 | 0.0 | 0.0 | 0.00 | 3.20 | 0.00 | 81 | 1015.4 |
| 20260508043522 | 12 | 0 | 0.0 | 0.0 | 0.00 | 3.20 | 0.00 | 80 | 1015.3 |
| 20260508043357 | 12 | 0 | 0.0 | 0.0 | 0.00 | 3.20 | 0.00 | 80 | 1015.3 |
| 20260508041910 | 12 | 0 | 0.0 | 0.0 | 0.00 | 3.20 | 0.00 | 79 | 1015.2 |
| 20260508040402 | 13 | 0 | 0.0 | 0.0 | 0.00 | 3.20 | 0.00 | 79 | 1015.1 |
| 20260508034919 | 13 | 0 | 0.0 | 0.0 | 0.00 | 3.25 | 3.20 | 79 | 1014.9 |
| 20260508033419 | 13 | 0 | 0.0 | 0.0 | 0.00 | 3.25 | 3.20 | 76 | 1015.0 |